Weather History for Nuiqsut, AK

Change the Weather History Date:

Thursday, September 5, 2013

  Actual Average (PAKU) Record (PAKU)
Temperature  
Mean Temperature 33 °F -  
Max Temperature 36 °F 42 °F 64 °F (1986)
Min Temperature 30 °F 33 °F 21 °F (1984)
Degree Days  
Heating Degree Days 32    
Moisture  
Dew Point 33 °F    
Average Humidity 99    
Maximum Humidity 100    
Minimum Humidity 92    
Precipitation  
Precipitation 0.08 in - - ()
Sea Level Pressure  
Sea Level Pressure 29.79 in    
Wind  
Wind Speed 8 mph (ENE)    
Max Wind Speed 12 mph    
Max Gust Speed -    
Visibility 6 miles    
Events Fog , Rain , Snow    
Averages and records for this station are not official NWS values.
T = Trace of Precipitation, MM = Missing Value Source: NWS Daily Summary

Daily Weather History Graph

Daily Weather History Graph

Search for Another Location

Airport:

Trip Planner

Search our weather history database for the weather conditions in past years. The results will help you decide how hot, cold, wet, or windy it might be!

Date:

Astronomy

Sep. 05, 2013 Rise Set
Actual Time 6:36 AM AKDT 9:25 PM AKDT
Civil Twilight 5:25 AM AKDT 10:35 PM AKDT
Nautical Twilight 3:20 AM AKDT 12:33 AM AKDT
Astronomical Twilight Sun does not rise Sun does not rise
Moon 7:41 AM AKDT (9/5) 8:22 PM AKDT (9/5)
Length of Visible Light 17h 10m
Length of Day
14h 48m
New Moon, 0% of the Moon is Illuminated
Sep 5
New Moon
Sep 12
First Quarter
Sep 19
Full
Sep 26
Last Quarter
Oct 4
New

Hourly Weather History & Observations

Time (AKDT) Temp. Windchill Dew Point Humidity Pressure Visibility Wind Dir Wind Speed Gust Speed Precip Events Conditions
12:10 AM 33.8 °F 27.7 °F 33.8 °F 100% 29.70 in 10.0 mi NE 6.9 mph - N/A   Overcast
12:53 AM 33.1 °F 26.1 °F 32.0 °F 96% 29.72 in 10.0 mi NE 8.1 mph - N/A   Overcast
2:24 AM 32.0 °F 27.5 °F 32.0 °F 100% 29.74 in 1.8 mi ENE 4.6 mph - N/A   Overcast
2:34 AM 32.0 °F 27.5 °F 32.0 °F 100% 29.74 in 3.0 mi ENE 4.6 mph - N/A   Overcast
2:53 AM 32.0 °F 24.8 °F 32.0 °F 100% 29.75 in 10.0 mi ENE 8.1 mph - N/A   Overcast
3:53 AM 32.0 °F 24.2 °F 32.0 °F 100% 29.75 in 10.0 mi NE 9.2 mph - N/A   Overcast
4:53 AM 32.0 °F 25.6 °F 32.0 °F 100% 29.76 in 10.0 mi ENE 6.9 mph - N/A   Overcast
5:49 AM 32.0 °F 24.2 °F 32.0 °F 100% 29.76 in 1.8 mi ENE 9.2 mph - N/A   Overcast
5:51 AM 32.0 °F 23.6 °F 32.0 °F 100% 29.76 in 1.5 mi ENE 10.4 mph - N/A   Overcast
5:53 AM 32.0 °F 24.8 °F 32.0 °F 100% 29.76 in 1.2 mi ENE 8.1 mph - N/A   Overcast
7:03 AM 30.2 °F 22.6 °F 30.2 °F 100% 29.77 in 2.0 mi ENE 8.1 mph - N/A   Overcast
7:10 AM 30.2 °F 21.9 °F 30.2 °F 100% 29.76 in 10.0 mi ENE 9.2 mph - N/A   Overcast
7:21 AM 32.0 °F 25.6 °F 32.0 °F 100% 29.76 in 3.0 mi ENE 6.9 mph - N/A   Overcast
7:23 AM 32.0 °F 25.6 °F 32.0 °F 100% 29.76 in 2.0 mi ENE 6.9 mph - N/A   Overcast
7:29 AM 32.0 °F 25.6 °F 32.0 °F 100% 29.76 in 2.0 mi ENE 6.9 mph - N/A   Overcast
7:37 AM 32.0 °F 25.6 °F 32.0 °F 100% 29.76 in 3.0 mi ENE 6.9 mph - N/A   Overcast
7:43 AM 32.0 °F 24.8 °F 32.0 °F 100% 29.76 in 2.0 mi ENE 8.1 mph - N/A   Overcast
7:51 AM 32.0 °F 24.2 °F 32.0 °F 100% 29.76 in 4.0 mi ENE 9.2 mph - N/A   Overcast
7:53 AM 32.0 °F 24.2 °F 32.0 °F 100% 29.77 in 5.0 mi ENE 9.2 mph - N/A   Overcast
8:13 AM 32.0 °F 24.2 °F 32.0 °F 100% 29.77 in 2.5 mi ENE 9.2 mph - N/A   Overcast
8:21 AM 32.0 °F 23.6 °F 32.0 °F 100% 29.77 in 4.0 mi ENE 10.4 mph - N/A   Overcast
8:36 AM 32.0 °F 23.6 °F 32.0 °F 100% 29.77 in 1.8 mi ENE 10.4 mph - N/A   Overcast
8:46 AM 32.0 °F 23.6 °F 32.0 °F 100% 29.77 in 3.0 mi ENE 10.4 mph - N/A   Overcast
8:53 AM 32.0 °F 23.0 °F 32.0 °F 100% 29.78 in 10.0 mi ENE 11.5 mph - N/A   Overcast
9:08 AM 33.8 °F 25.3 °F 33.8 °F 100% 29.77 in 10.0 mi ENE 11.5 mph - N/A   Overcast
9:53 AM 34.0 °F 26.0 °F 33.1 °F 96% 29.78 in 10.0 mi ENE 10.4 mph - N/A   Overcast
10:53 AM 35.1 °F 27.4 °F 33.1 °F 92% 29.79 in 10.0 mi East 10.4 mph - N/A   Overcast
11:53 AM 35.1 °F 27.9 °F 33.1 °F 92% 29.80 in 10.0 mi East 9.2 mph - N/A   Overcast
12:43 PM 35.6 °F 29.9 °F 33.8 °F 93% 29.82 in 10.0 mi ENE 6.9 mph - 0.00 in Rain Light Rain
12:53 PM 35.1 °F 31.0 °F 33.1 °F 92% 29.82 in 6.0 mi NE 4.6 mph - 0.01 in Snow Light Snow
1:09 PM 33.8 °F 30.8 °F 33.8 °F 100% 29.82 in 2.5 mi ENE 3.5 mph - 0.01 in Snow Light Snow
1:16 PM 33.8 °F 30.8 °F 33.8 °F 100% 29.83 in 1.5 mi ENE 3.5 mph - 0.02 in Snow Light Snow
1:27 PM 32.0 °F 28.7 °F 32.0 °F 100% 29.83 in 0.5 mi East 3.5 mph - 0.02 in Fog , Snow Snow
1:43 PM 32.0 °F 27.5 °F 32.0 °F 100% 29.83 in 0.5 mi East 4.6 mph - 0.03 in Fog , Snow Snow
1:53 PM 32.0 °F 26.4 °F 32.0 °F 100% 29.83 in 0.5 mi ENE 5.8 mph - 0.03 in Fog , Snow Snow
4:33 PM 35.6 °F 30.7 °F 33.8 °F 93% 29.85 in 10.0 mi East 5.8 mph - 0.02 in   Overcast
4:53 PM 35.1 °F 28.6 °F 34.0 °F 96% 29.85 in 10.0 mi East 8.1 mph - 0.02 in   Overcast
6:53 PM 36.0 °F 29.0 °F 35.1 °F 97% 29.84 in 10.0 mi ENE 9.2 mph - N/A   Overcast
8:53 PM 36.0 °F 29.0 °F 36.0 °F 100% 29.86 in 10.0 mi East 9.2 mph - N/A   Overcast
10:37 PM 35.6 °F 29.9 °F 35.6 °F 100% 29.85 in 10.0 mi ENE 6.9 mph - N/A   Overcast
10:53 PM 35.1 °F 28.6 °F 35.1 °F 100% 29.86 in 9.0 mi East 8.1 mph - 0.00 in Rain Light Rain
11:53 PM 35.1 °F 28.6 °F 35.1 °F 100% 29.88 in 9.0 mi NE 8.1 mph - 0.02 in Rain Light Rain